TimeCDT,TemperatureF,Dew PointF,Humidity,Sea Level PressureIn,VisibilityMPH,Wind Direction,Wind SpeedMPH,Gust SpeedMPH,PrecipitationIn,Events,Conditions,WindDirDegrees,DateUTC
1:15 AM,64.4,60.8,88,30.01,10.0,SE,3.5,-,N/A,,Partly Cloudy,130,2013-05-09 06:15:00
1:35 AM,66.2,59.0,78,30.00,10.0,SSE,3.5,-,N/A,,Partly Cloudy,150,2013-05-09 06:35:00
1:55 AM,66.2,59.0,78,30.00,10.0,SE,3.5,-,N/A,,Clear,140,2013-05-09 06:55:00
3:55 AM,64.4,59.0,83,29.99,10.0,South,4.6,-,N/A,,Clear,170,2013-05-09 08:55:00
4:15 AM,64.4,59.0,83,29.99,10.0,South,4.6,-,N/A,,Scattered Clouds,190,2013-05-09 09:15:00
4:55 AM,64.4,59.0,83,29.99,10.0,Calm,Calm,-,N/A,,Partly Cloudy,0,2013-05-09 09:55:00
7:55 AM,68.0,60.8,78,30.00,10.0,South,12.7,17.3,N/A,,Clear,180,2013-05-09 12:55:00
8:15 AM,69.8,60.8,73,30.00,10.0,South,11.5,21.9,N/A,,Clear,190,2013-05-09 13:15:00
8:55 AM,69.8,62.6,78,30.01,10.0,South,11.5,-,N/A,,Clear,190,2013-05-09 13:55:00
9:15 AM,71.6,62.6,73,30.01,10.0,SSW,12.7,-,N/A,,Clear,200,2013-05-09 14:15:00
9:35 AM,71.6,62.6,73,30.03,10.0,SW,11.5,-,N/A,,Clear,220,2013-05-09 14:35:00
9:55 AM,71.6,62.6,73,30.04,10.0,SW,16.1,-,N/A,,Clear,220,2013-05-09 14:55:00
10:15 AM,73.4,60.8,65,30.04,10.0,SW,18.4,25.3,N/A,,Clear,220,2013-05-09 15:15:00
10:35 AM,73.4,59.0,61,30.03,10.0,SW,16.1,24.2,N/A,,Clear,220,2013-05-09 15:35:00
10:55 AM,75.2,60.8,61,30.02,10.0,SSW,15.0,-,N/A,,Clear,200,2013-05-09 15:55:00
11:15 AM,75.2,59.0,57,30.01,10.0,South,17.3,23.0,N/A,,Clear,190,2013-05-09 16:15:00
11:35 AM,75.2,60.8,61,30.00,10.0,SSW,17.3,-,N/A,,Clear,200,2013-05-09 16:35:00
11:55 AM,75.2,60.8,61,29.99,10.0,SSW,18.4,-,N/A,,Clear,210,2013-05-09 16:55:00
12:15 PM,77.0,60.8,57,29.97,10.0,SSW,19.6,23.0,N/A,,Clear,200,2013-05-09 17:15:00
12:35 PM,77.0,60.8,57,29.97,10.0,South,19.6,24.2,N/A,,Clear,190,2013-05-09 17:35:00
12:55 PM,77.0,60.8,57,29.96,10.0,South,19.6,24.2,N/A,,Clear,190,2013-05-09 17:55:00
1:35 PM,78.8,59.0,51,29.96,10.0,South,18.4,24.2,N/A,,Clear,180,2013-05-09 18:35:00
2:15 PM,80.6,57.2,45,29.95,10.0,SSW,19.6,26.5,N/A,,Clear,200,2013-05-09 19:15:00
2:35 PM,80.6,57.2,45,29.95,10.0,SSW,23.0,26.5,N/A,,Clear,210,2013-05-09 19:35:00
2:55 PM,80.6,59.0,48,29.95,10.0,SSW,23.0,27.6,N/A,,Clear,200,2013-05-09 19:55:00
3:15 PM,80.6,59.0,48,29.94,10.0,SSW,23.0,26.5,N/A,,Clear,210,2013-05-09 20:15:00
3:35 PM,80.6,59.0,48,29.93,10.0,SW,19.6,26.5,N/A,,Clear,220,2013-05-09 20:35:00
3:55 PM,78.8,57.2,47,29.93,10.0,SSW,18.4,-,N/A,,Clear,200,2013-05-09 20:55:00
4:15 PM,77.0,57.2,50,29.94,10.0,SSW,20.7,28.8,N/A,,Clear,200,2013-05-09 21:15:00
4:35 PM,80.6,57.2,45,29.94,10.0,SSW,23.0,33.4,N/A,,Clear,200,2013-05-09 21:35:00
4:55 PM,80.6,59.0,48,29.94,10.0,SSW,19.6,-,N/A,,Clear,200,2013-05-09 21:55:00
5:15 PM,78.8,59.0,51,29.93,10.0,SSW,23.0,27.6,N/A,,Clear,200,2013-05-09 22:15:00
5:35 PM,77.0,59.0,54,29.93,10.0,SSW,17.3,-,N/A,,Clear,210,2013-05-09 22:35:00
5:55 PM,77.0,59.0,54,29.92,10.0,SSW,17.3,23.0,N/A,,Clear,200,2013-05-09 22:55:00
6:15 PM,75.2,59.0,57,29.92,10.0,SSW,17.3,23.0,N/A,,Clear,200,2013-05-09 23:15:00
6:35 PM,75.2,59.0,57,29.92,10.0,SSW,13.8,-,N/A,,Clear,200,2013-05-09 23:35:00
6:55 PM,75.2,60.8,61,29.92,10.0,SSW,15.0,-,N/A,,Clear,200,2013-05-09 23:55:00
7:15 PM,73.4,60.8,65,29.92,10.0,SSW,13.8,-,N/A,,Clear,200,2013-05-10 00:15:00
7:35 PM,73.4,62.6,69,29.93,10.0,SSW,18.4,25.3,N/A,,Clear,200,2013-05-10 00:35:00
7:55 PM,73.4,62.6,69,29.93,10.0,SSW,18.4,-,N/A,,Clear,210,2013-05-10 00:55:00
8:15 PM,73.4,62.6,69,29.93,10.0,SSW,15.0,-,N/A,,Clear,210,2013-05-10 01:15:00
8:35 PM,71.6,62.6,73,29.94,10.0,SSW,15.0,-,N/A,,Clear,200,2013-05-10 01:35:00
8:55 PM,71.6,62.6,73,29.92,10.0,SSW,15.0,-,N/A,,Clear,200,2013-05-10 01:55:00
9:15 PM,71.6,62.6,73,29.94,10.0,SSW,16.1,-,N/A,,Clear,200,2013-05-10 02:15:00
9:35 PM,71.6,62.6,73,29.95,10.0,SSW,12.7,-,N/A,,Clear,210,2013-05-10 02:35:00
9:55 PM,69.8,64.4,83,29.95,10.0,SSW,10.4,-,N/A,,Clear,210,2013-05-10 02:55:00
10:15 PM,69.8,64.4,83,29.95,10.0,SSW,9.2,-,N/A,,Clear,210,2013-05-10 03:15:00
10:35 PM,68.0,64.4,88,29.94,10.0,SSW,9.2,-,N/A,,Clear,210,2013-05-10 03:35:00
10:55 PM,68.0,64.4,88,29.94,10.0,South,10.4,-,N/A,,Scattered Clouds,190,2013-05-10 03:55:00
11:15 PM,68.0,64.4,88,29.95,10.0,SSW,13.8,-,N/A,,Overcast,200,2013-05-10 04:15:00
11:35 PM,68.0,64.4,88,29.94,10.0,SSW,10.4,-,N/A,,Mostly Cloudy,200,2013-05-10 04:35:00
11:55 PM,68.0,64.4,88,29.95,10.0,SSW,9.2,-,N/A,,Mostly Cloudy,210,2013-05-10 04:55:00